Time_in_sec,Mx,My,Mz
1323444974.60054278,-0.35457110,0.38981804,-0.99373388
1323444974.64967608,-0.35467342,0.39079985,-0.99540323
1323444974.69320774,-0.35574546,0.39117822,-0.99597442
1323444974.74965143,-0.35592514,0.39138299,-0.99228990
1323444974.80104780,-0.35493895,0.39174274,-0.99313056
1323444974.85249329,-0.35394737,0.39137971,-0.99396574
1323444974.90188837,-0.35518244,0.39128461,-0.99517965
1323444974.94987845,-0.35451233,0.39055192,-0.99488288
1323444975.00175667,-0.35645881,0.39105377,-0.99486560
1323444975.05266404,-0.35590959,0.39008018,-0.99444628
1323444975.10454416,-0.35432267,0.39116395,-0.99602383
1323444975.14961076,-0.35470089,0.39056450,-0.99591285
1323444975.19303846,-0.35548645,0.39033353,-0.99608165
1323444975.25253725,-0.35374850,0.39271170,-0.99485642
1323444975.30169892,-0.35488743,0.39344034,-0.99428678
1323444975.34976840,-0.35667503,0.39008597,-0.99423337
1323444975.40066862,-0.35496080,0.39152968,-0.99580652
1323444975.45368266,-0.35493255,0.39068225,-0.99541658
1323444975.50175905,-0.35435283,0.39128998,-0.99653614
1323444975.54865193,-0.35754392,0.38926938,-0.99593186
1323444975.60164070,-0.35489786,0.38995391,-0.99489975
1323444975.65257645,-0.35546789,0.39155623,-0.99787349
1323444975.69256473,-0.35357726,0.39070418,-0.99891084
1323444975.74952960,-0.35477281,0.39334491,-0.99682868
1323444975.80053186,-0.35474929,0.39117518,-0.99668449
1323444975.84864211,-0.35510522,0.39227891,-0.99824113
1323444975.90053844,-0.35371730,0.39106837,-0.99904859
1323444975.94961429,-0.35463378,0.39095929,-0.99922544
1323444976.00160289,-0.35499725,0.39131936,-0.99873811
1323444976.05251431,-0.35466969,0.39010075,-0.99769199
1323444976.10163260,-0.35616758,0.38940760,-0.99904346
1323444976.15025973,-0.35693583,0.38881245,-0.99895388
1323444976.20051694,-0.35610411,0.39146379,-0.99994671
1323444976.24964118,-0.35489851,0.38963985,-0.99948537
1323444976.30052066,-0.35626808,0.39014849,-1.00071096
1323444976.34951329,-0.35518050,0.38964689,-0.99988323
1323444976.40166402,-0.35537434,0.39134452,-1.00079799
1323444976.44839311,-0.35554206,0.39072835,-0.99927354
1323444976.50152063,-0.35532582,0.39169616,-0.99990577
1323444976.55032253,-0.35570627,0.38866800,-0.99786597
1323444976.60163927,-0.35499465,0.38999569,-0.99885601
1323444976.64863968,-0.35359460,0.39106834,-0.99916929
1323444976.69819808,-0.35515484,0.39012316,-0.99937546
1323444976.74854684,-0.35489774,0.38973665,-0.99719208
1323444976.80054164,-0.35590678,0.38950154,-0.99673593
1323444976.84852576,-0.35487840,0.39105615,-0.99669069
1323444976.90168905,-0.35362768,0.39081073,-0.99751252
1323444976.94852877,-0.35594416,0.39059129,-0.99725550
1323444977.00155401,-0.35498250,0.39109933,-1.00077474
1323444977.04865885,-0.35436767,0.38936815,-0.99703300
1323444977.10054946,-0.35524264,0.39131945,-0.99849671
1323444977.14965796,-0.35451570,0.39059928,-0.99947125
1323444977.20065904,-0.35378146,0.39105725,-0.99790502
1323444977.24851561,-0.35537997,0.39132226,-0.99863166
1323444977.29809284,-0.35496786,0.39109653,-1.00051904
1323444977.34975815,-0.35475299,0.39069474,-0.99680871
1323444977.40863013,-0.35429439,0.38913697,-0.99804688
1323444977.45251966,-0.35524005,0.38999575,-0.99861455
1323444977.50246429,-0.35399026,0.38987079,-0.99943733
1323444977.55285549,-0.35532546,0.38794374,-0.99809486
1323444977.60128164,-0.35723343,0.38915998,-0.99731594
1323444977.65248775,-0.35392699,0.39118195,-0.99816877
1323444977.70197296,-0.35463479,0.39011744,-0.99934691
1323444977.74966574,-0.35360280,0.39119020,-0.99929804
1323444977.80052376,-0.35497281,0.38902920,-0.99859303
1323444977.84962463,-0.35286316,0.39092544,-0.99772638
1323444977.89877820,-0.35298494,0.38962543,-1.00001764
1323444977.94980049,-0.35454229,0.39142302,-0.99756700
1323444978.00157809,-0.35470176,0.38950542,-0.99832672
1323444978.05250645,-0.35571361,0.38866940,-0.99799383
1323444978.10165071,-0.35412467,0.39143685,-0.99932837
1323444978.14979339,-0.35522631,0.39011341,-0.99835974
1323444978.20181251,-0.35466969,0.39010075,-0.99769199
1323444978.24966192,-0.35606954,0.39095271,-0.99713749
1323444978.30055380,-0.35431421,0.39178714,-0.99806684
1323444978.34969616,-0.35415909,0.38863003,-0.99574190
1323444978.40143561,-0.35531345,0.38926464,-0.99772125
1323444978.43882823,-0.35585892,0.39071867,-0.99801642
1323444978.50069237,-0.35408458,0.39116529,-0.99639308
1323444978.54965019,-0.35542333,0.39068237,-0.99493372
1323444978.60164046,-0.35617951,0.39022857,-0.99688351
1323444978.64967012,-0.35523894,0.39179990,-0.99837244
1323444978.70462322,-0.35317823,0.39067483,-0.99646741
1323444978.74864459,-0.35499659,0.39045388,-0.99656540
1323444978.80142665,-0.35462758,0.39033332,-0.99692667
1323444978.84854031,-0.35541049,0.39092052,-0.99467981
1323444978.90163374,-0.35476673,0.39057705,-0.99706346
1323444978.94962549,-0.35579488,0.39094707,-0.99686754
1323444979.00050616,-0.35396561,0.39068478,-0.99663806
1323444979.04851770,-0.35526866,0.39031538,-0.99454027
1323444979.10458326,-0.35347843,0.39116651,-0.99712455
1323444979.14849567,-0.35449871,0.38970730,-0.99474865
1323444979.18850875,-0.35509181,0.39068925,-0.99593514
1323444979.24852991,-0.35530522,0.39032236,-0.99517953
1323444979.30121875,-0.35377416,0.39223543,-0.99536419
1323444979.34852028,-0.35579896,0.38993883,-0.99252760
1323444979.40163755,-0.35661367,0.38949615,-0.99550021
1323444979.44968152,-0.35480702,0.39128312,-0.99541402
1323444979.49865866,-0.35451055,0.39031100,-0.99488103
1323444979.54866362,-0.35479712,0.38995805,-0.99540401
1323444979.60221624,-0.35585567,0.38970906,-0.99354857
1323444979.64852357,-0.35471010,0.38984454,-0.99616307
1323444979.70126295,-0.35486647,0.39141476,-0.99643773
1323444979.74852276,-0.35505432,0.39056182,-0.99529493
1323444979.80161881,-0.35601136,0.38923422,-0.99406350
1323444979.84861040,-0.35631877,0.39068955,-0.99472791
1323444979.89852238,-0.35527754,0.39130273,-0.99684173
1323444979.94881988,-0.35557809,0.39008707,-0.99544770
1323444980.00155854,-0.35474321,0.38958690,-0.99450630
1323444980.04851484,-0.35581076,0.38936296,-0.99507296
1323444980.10146523,-0.35456085,0.39020032,-0.99577510
1323444980.15008664,-0.35599199,0.38937414,-0.99597508
1323444980.20049858,-0.35492522,0.39068085,-0.99528873
1323444980.24946880,-0.35513595,0.38995257,-0.99453044
1323444980.30053902,-0.35395637,0.39140478,-0.99638778
1323444980.34951448,-0.35684803,0.38997528,-0.99500668
1323444980.40054297,-0.35541859,0.39082512,-0.99710095
1323444980.45250678,-0.35432276,0.39020163,-0.99614441
1323444980.50053573,-0.35434279,0.38974765,-0.99881852
1323444980.54976797,-0.35648087,0.39009565,-0.99536973
1323444980.60053563,-0.35392472,0.38815090,-0.99623543
1323444980.64970374,-0.35532439,0.39092746,-0.99543977
1323444980.70051289,-0.35554025,0.39048743,-0.99927169
1323444980.75295949,-0.35499468,0.39117524,-0.99644303
1323444980.80103421,-0.35506186,0.38863862,-0.99566400
1323444980.85252547,-0.35618684,0.39022997,-0.99701136
1323444980.90063834,-0.35379529,0.38997728,-0.99828041
1323444980.95249248,-0.35352424,0.39045349,-0.99801409
1323444981.00979996,-0.35486567,0.39033198,-0.99655741
1323444981.04951882,-0.35422990,0.39203498,-0.99882865
1323444981.10051751,-0.35313025,0.39167473,-1.00004017
1323444981.14951372,-0.35473263,0.39167652,-0.99859875
1323444981.20052934,-0.35565382,0.39024514,-0.99902129
1323444981.25251412,-0.35360551,0.39155158,-0.99930078
1323444981.30049896,-0.35442498,0.39096621,-1.00010610
1323444981.34967184,-0.35525209,0.38867486,-0.99898815
1323444981.40064287,-0.35413828,0.39228147,-0.99946260
1323444981.44866848,-0.35352582,0.39143947,-1.00018764
1323444981.50168729,-0.35254717,0.39105555,-0.99898440
1323444981.54865694,-0.35584721,0.38915268,-0.99800462
1323444981.60064435,-0.35478947,0.39048445,-0.99974030
1323444981.64860177,-0.35479575,0.39132768,-0.99974668
1323444981.70056534,-0.35452661,0.39108250,-0.99960274
1323444981.74954724,-0.35414761,0.39059916,-0.99983341
1323444981.80110097,-0.35412768,0.38891131,-0.99969286
1323444981.84865451,-0.35477853,0.39000121,-0.99960887
1323444981.90055251,-0.35514358,0.39134726,-1.00129509
1323444981.95075345,-0.35498071,0.39085841,-1.00077295
1323444982.00053263,-0.35321355,0.39108914,-1.00156987
1323444982.04863119,-0.35513365,0.39002216,-1.00128520
1323444982.10156083,-0.35404214,0.39074606,-1.00250494
1323444982.15038824,-0.35440391,0.39108247,-0.99972349
1323444982.20054102,-0.35520774,0.39133614,-1.00015163
1323444982.24855065,-0.35553631,0.39171290,-1.00131929
1323444982.30166531,-0.35341585,0.39216360,-1.00044167
1323444982.34959102,-0.35509980,0.39037660,-1.00064862
1323444982.40166116,-0.35574794,0.39110509,-1.00056183
1323444982.43994093,-0.35583010,0.39232364,-1.00184941
1323444982.50164485,-0.35412544,0.39251959,-0.99920869
1323444982.54850125,-0.35503554,0.39252958,-0.99925858
1323444982.60166025,-0.35533968,0.39061618,-1.00028110
1323444982.64963865,-0.35489830,0.39038488,-1.00165713
1323444982.69023323,-0.35521865,0.39063981,-1.00269604
1323444982.74965954,-0.35456568,0.39219591,-1.00241649
1323444982.80050063,-0.35706538,0.39148352,-1.00089157
1323444982.84851432,-0.35552281,0.38990599,-1.00130558
1323444982.90052485,-0.35485315,0.39196342,-1.00294030
1323444982.95011497,-0.35544017,0.39135706,-1.00194860
1323444982.99813938,-0.35551694,0.39185286,-1.00323081
1323444983.04864597,-0.35556218,0.38931203,-1.00206816
1323444983.10049868,-0.35539728,0.38932732,-1.00371599
1323444983.14963722,-0.35575965,0.39149153,-1.00298667
1323444983.20062828,-0.35494128,0.39027280,-1.00242341
1323444983.24852443,-0.35426584,0.39054245,-1.00343025
1323444983.30054021,-0.35530108,0.39091375,-1.00336218
1323444983.34851122,-0.35538548,0.38970387,-1.00272107
1323444983.40053892,-0.35347050,0.38944861,-1.00325143
1323444983.45259142,-0.35480389,0.39199474,-1.00359750
1323444983.50048280,-0.35425532,0.39112419,-1.00392115
1323444983.55352736,-0.35610780,0.38980377,-1.00248396
1323444983.60152864,-0.35432690,0.39015216,-1.00302601
1323444983.65252185,-0.35508400,0.38981882,-1.00497675
1323444983.70160127,-0.35450533,0.39076427,-1.00380480
1323444983.74984193,-0.35460955,0.39102471,-1.00559652
1323444983.80132794,-0.35465482,0.38966346,-1.00202096
1323444983.85356140,-0.35592273,0.39005578,-1.00374997
1323444983.90461707,-0.35461506,0.39078519,-1.00572264
1323444983.95376873,-0.35501593,0.39223501,-1.00575495
1323444984.00054502,-0.35469207,0.39053592,-1.00483298
1323444984.05252337,-0.35541248,0.39115790,-1.00602376
1323444984.10062456,-0.35439253,0.39090976,-1.00634849
1323444984.14970303,-0.35497493,0.39066342,-1.00523174
1323444984.20053887,-0.35643151,0.39128560,-1.00569820
1323444984.25257063,-0.35596180,0.39116919,-1.00656378
1323444984.30073547,-0.35561499,0.39030775,-1.00513673
1323444984.34976721,-0.35647476,0.39042845,-1.00429261
1323444984.40064430,-0.35535383,0.39210907,-1.00488043
1323444984.45260978,-0.35537961,0.39067048,-1.00550878
1323444984.50120378,-0.35475782,0.39151078,-1.00586307
1323444984.54956746,-0.35659114,0.38958526,-1.00416553
1323444984.60064387,-0.35481486,0.38957366,-1.00483286
1323444984.64856291,-0.35503247,0.39151642,-1.00613296
1323444984.70454860,-0.35439974,0.39187345,-1.00635576
1323444984.74865103,-0.35543993,0.39092255,-1.00653338
1323444984.80057096,-0.35560685,0.38922361,-1.00512862
1323444984.84864545,-0.35669425,0.39164981,-1.00571525
1323444984.90057921,-0.35456082,0.39212137,-1.00687611
1323444984.94876957,-0.35501039,0.39129496,-1.00804186
1323444985.00049520,-0.35435402,0.39044461,-1.00799978
1323444985.04950833,-0.35725009,0.39057973,-1.00650263
1323444985.09840155,-0.35465637,0.38946986,-1.00660753
1323444985.14957261,-0.35534650,0.39092809,-1.00716555
1323444985.18956804,-0.35572067,0.39251646,-1.00898147
1323444985.24853802,-0.35492700,0.39284286,-1.00639153
1323444985.30455804,-0.35439885,0.39175299,-1.00635481
1323444985.35041022,-0.35577494,0.39118028,-1.00782800
1323444985.40163517,-0.35556433,0.39094624,-1.00870693
1323444985.44164348,-0.35485843,0.39128935,-1.00765109
1323444985.50449467,-0.35450748,0.39357805,-1.00803053
1323444985.54855776,-0.35532704,0.39320990,-1.00654352
1323444985.60054994,-0.35389173,0.39054686,-1.00670087
1323444985.65105915,-0.35491607,0.39118004,-1.00867307
1323444985.68855572,-0.35431710,0.39214498,-1.00941181
1323444985.75013137,-0.35410571,0.39200777,-1.00799739
1323444985.80057716,-0.35416716,0.39163527,-1.00685108
1323444985.84950495,-0.35513940,0.39213824,-1.00792742
1323444985.90051007,-0.35483626,0.39203021,-1.00943935
1323444985.94063854,-0.35505709,0.39070243,-1.00893223
1323444986.00050879,-0.35498899,0.39311859,-1.00971043
1323444986.04852724,-0.35535923,0.39165226,-1.00729883
1323444986.10053897,-0.35635716,0.38977230,-1.00838101
1323444986.15000701,-0.35584423,0.39265424,-1.00811863
1323444986.19256210,-0.35427824,0.39083204,-1.00814724
1323444986.24956393,-0.35497013,0.39156872,-1.00882745
1323444986.30147028,-0.35558361,0.39178610,-1.00593209
1323444986.34953737,-0.35722229,0.39252242,-1.00804424
1323444986.40052438,-0.35639763,0.39046043,-1.00747466
1323444986.45269156,-0.35451880,0.39021209,-1.00864434
1323444986.50052524,-0.35469350,0.39130464,-1.00929892
1323444986.54966116,-0.35662657,0.38903722,-1.00938869
1323444986.60052848,-0.35539970,0.39023432,-1.00743997
1323444986.64951873,-0.35509190,0.39144832,-1.00870585
1323444986.68982673,-0.35473952,0.39060935,-1.00944507
1323444986.75252771,-0.35451707,0.39191321,-1.00765836
1323444986.80050802,-0.35617679,0.39084363,-1.00735939
1323444986.84068966,-0.35449225,0.39056790,-1.00813568
1323444986.90050268,-0.35356182,0.39271927,-1.00746286
1323444986.95278835,-0.35538557,0.39322105,-1.00756633
1323444987.00056076,-0.35591516,0.38961986,-1.00820684
1323444987.05253768,-0.35526219,0.39117596,-1.00792730
1323444987.10204387,-0.35430932,0.38935348,-1.00735235
1323444987.14966893,-0.35399395,0.39249098,-1.00824952
1323444987.18966174,-0.35361403,0.39188719,-1.00847936
1323444987.25252223,-0.35525757,0.39153597,-1.00780225
1323444987.30055428,-0.35494825,0.39080197,-1.00701535
1323444987.34959340,-0.35591596,0.39070264,-1.00808716
1323444987.40054846,-0.35602313,0.39057940,-1.00770986
1323444987.44164658,-0.35551286,0.39168155,-1.00998366
1323444987.50048947,-0.35468701,0.39238599,-1.00905144
1323444987.54865861,-0.35593712,0.39080361,-1.00617743
1323444987.60057044,-0.35533017,0.38972208,-1.00702858
1323444987.65255189,-0.35574195,0.39165515,-1.00719237
1323444987.69260669,-0.35638466,0.39048132,-1.00951314
1323444987.74962234,-0.35484830,0.39188889,-1.00739992
1323444987.80049276,-0.35507095,0.39080200,-1.00689471
1323444987.84953880,-0.35503528,0.39091548,-1.00625634
1323444987.90049410,-0.35594782,0.39203191,-1.00848079
1323444987.94051480,-0.35560000,0.39083275,-1.00934517
1323444987.99856138,-0.35599375,0.39153615,-1.00707781
1323444988.04854417,-0.35559350,0.39309371,-1.00668478
1323444988.10058284,-0.35534459,0.39164948,-1.00704312
1323444988.14961672,-0.35505804,0.39180264,-1.00806952
1323444988.20054245,-0.35591683,0.39084080,-1.00734520
1323444988.24854469,-0.35422063,0.39094132,-1.00712562
1323444988.29832101,-0.35550323,0.38962939,-1.00705910
1323444988.34856057,-0.35552868,0.39107740,-1.00732565
1323444988.40055871,-0.35654479,0.39084375,-1.00699735
1323444988.43935299,-0.35601580,0.39057803,-1.00758207
1323444988.50124311,-0.35604838,0.39395237,-1.00773525
1323444988.54952431,-0.35670528,0.39117077,-1.00596726
1323444988.60052061,-0.35482904,0.39106652,-1.00943208
1323444988.64956141,-0.35556421,0.39190856,-1.00858629
1323444988.68851876,-0.35597169,0.39131472,-1.00898671
1323444988.74970889,-0.35360029,0.39200485,-1.00822449
1323444988.80101275,-0.35488692,0.39139172,-1.00586927
1323444988.84054327,-0.35611656,0.39057386,-1.00707769
1323444988.90055752,-0.35532963,0.39335403,-1.00883865
1323444988.94850326,-0.35533166,0.39284992,-1.00666869
1323444989.00056696,-0.35775650,0.38974079,-1.00639701
1323444989.04854393,-0.35680512,0.38986659,-1.00787508
1323444989.10248327,-0.35556826,0.38972077,-1.00665927
1323444989.14931369,-0.35579047,0.39130351,-1.00808465
1323444989.20156002,-0.35501951,0.39153728,-1.00817144
1323444989.24858499,-0.35534301,0.38948396,-1.00728250
1323444989.30154920,-0.35547945,0.38936630,-1.00741661
1323444989.35283446,-0.35533199,0.38996300,-1.00703037
1323444989.40164709,-0.35440806,0.39103302,-1.00660515
1323444989.45282698,-0.35515526,0.39055413,-1.00613284
1323444989.50452423,-0.35569817,0.39068449,-1.00654590
1323444989.55258465,-0.35572100,0.39080912,-1.00693035
1323444989.60064149,-0.35525331,0.39018860,-1.00562584
1323444989.65248680,-0.35487148,0.38912663,-1.00814617
1323444989.70229149,-0.35554326,0.39106253,-1.00832427
1323444989.74997854,-0.35537151,0.38958633,-1.00550067
1323444989.80450106,-0.35547844,0.39138770,-1.00488210
1323444989.84964919,-0.35611486,0.38937065,-1.00719655
1323444989.90150833,-0.35319677,0.39137322,-1.00577652
1323444989.94954467,-0.35372043,0.39186075,-1.00580871
1323444990.00154114,-0.35563156,0.38960716,-1.00477254
1323444990.04880452,-0.35507238,0.38923320,-1.00410211
1323444990.10165524,-0.35522071,0.38875705,-1.00448906
1323444990.15014172,-0.35527730,0.38948941,-1.00538933
1323444990.20052958,-0.35524407,0.39070904,-1.00692511
1323444990.25252604,-0.35519198,0.39077836,-1.00447977
1323444990.30449915,-0.35605747,0.38873491,-1.00400281
1323444990.34865594,-0.35709465,0.39030954,-1.00381601
1323444990.40163875,-0.35372332,0.39029753,-1.00605261
1323444990.44859576,-0.35423326,0.39090276,-1.00582993
1323444990.50164151,-0.35647178,0.38986772,-1.00583971
1323444990.54990888,-0.35604075,0.38925430,-1.00517464
1323444990.60163331,-0.35483155,0.38983530,-1.00434804
1323444990.64855504,-0.35590300,0.39192051,-1.00696981
1323444990.68850160,-0.35532376,0.39082116,-1.00603843
1323444990.74870610,-0.35673514,0.39227647,-1.00561643
1323444990.80150890,-0.35557279,0.39150262,-1.00425088
1323444990.84851813,-0.35543185,0.39101797,-1.00411224
1323444990.90159988,-0.35559663,0.39078543,-1.00475681
1323444990.94215560,-0.35694525,0.39044806,-1.00572038
1323444991.00150394,-0.35572889,0.39381790,-1.00669730
1323444991.04852343,-0.35602504,0.39103761,-1.00541925
1323444991.09830451,-0.35598567,0.39163154,-1.00465679
1323444991.14951086,-0.35529348,0.39067742,-1.00626874
1323444991.20150971,-0.35487059,0.39018571,-1.00573230
1323444991.24860573,-0.35710916,0.39009506,-1.00636411
1323444991.30151820,-0.35513973,0.39043090,-1.00587630
1323444991.35007501,-0.35566810,0.38959613,-1.00615418
1323444991.40160322,-0.35566068,0.39055705,-1.00590575
1323444991.44957495,-0.35519645,0.39020112,-1.00689721
1323444991.49819517,-0.35578057,0.39115798,-1.00566161
1323444991.54985976,-0.35554829,0.38901332,-1.00565565
1323444991.60053277,-0.35827139,0.39012435,-1.00555778
1323444991.64853477,-0.35458866,0.39094141,-1.00676346
1323444991.68860054,-0.35511795,0.39044449,-1.00475037
1323444991.75018072,-0.35656038,0.39214626,-1.00484145
1323444991.80098200,-0.35552871,0.39225668,-1.00491309
1323444991.84957242,-0.35650668,0.38985103,-1.00418508
1323444991.90292621,-0.35467646,0.39213741,-1.00588489
1323444991.94957709,-0.35477909,0.39141205,-1.00550318
1323444992.00128937,-0.35392782,0.39045116,-1.00659645
1323444992.04890466,-0.35642430,0.38937762,-1.00506914
1323444992.10154796,-0.35617885,0.39033964,-1.00518990
1323444992.14958310,-0.35475174,0.39068526,-1.00511420
1323444992.19264126,-0.35479102,0.39105356,-1.00575614
1323444992.24967980,-0.35486048,0.39272711,-1.00449765
1323444992.30166078,-0.35494679,0.39079601,-1.00397897
1323444992.35253954,-0.35544938,0.39043763,-1.00374913
1323444992.40138888,-0.35466024,0.38996962,-1.00586867
1323444992.45253277,-0.35542613,0.39084068,-1.00782800
1323444992.51247215,-0.35514730,0.38948798,-1.00538218
1323444992.55246353,-0.35312355,0.38933226,-1.00399613
